Location: Old Broadwell Mill Observatory
(33.8015°N, 85.8137°W)
Time: 11:33:23
(UTC-05:00)

Daily predictions for brighter satellites

Satellite Brightness Start Highest point End
(mag) Time Altitude Azimuth Time Altitude Azimuth Time Altitude Azimuth
Cosmos 1980 3.9 19:38:05 10° S 19:43:34 52° ESE 19:49:05 10° NNE
Cosmos 1666 Rocket 3.8 19:43:32 10° N 19:47:54 53° E 19:52:13 10° SSE
SPOT 3 Rocket 4.0 19:44:45 10° S 19:49:53 66° WSW 19:55:01 10° NNW
Thor Agena Rocket 3.9 19:44:53 10° NNE 19:49:53 43° E 19:54:53 10° S
Sich 1 3.0 19:46:10 10° N 19:50:25 63° E 19:54:38 10° SSE
Meteor 2-21 Rocket 4.5 19:44:44 10° S 19:50:46 64° E 19:56:52 10° NNE
Meteor 2-3 Rocket 4.2 19:45:51 10° N 19:51:08 40° ENE 19:56:25 10° SSE
Cosmos 1455 2.3 19:49:00 10° S 19:52:43 53° E 19:56:29 10° NNE
SJ-6B 3.1 19:49:57 10° SSE 19:53:51 51° ENE 19:57:42 10° N
Cosmos 1844 Rocket 2.8 19:48:24 10° NNW 19:54:06 82° WSW 19:59:43 10° SSE
Cosmos 2341 Rocket 4.1 19:53:28 10° S 19:59:42 61° E 20:05:55 10° NNE
Aureole 2 4.1 19:56:54 10° SSW 19:59:56 81° WNW 20:02:52 10° NNE
Cosmos 2333 Rocket 2.8 19:55:39 10° SSW 20:01:15 64° WNW 20:06:52 10° NNE
SL-24 R/B - RUBIN 2 4.2 19:57:03 10° NW 20:01:18 57° WSW 20:05:40 10° SSE
Cosmos 2219 Rocket 3.3 19:58:02 10° SW 20:03:32 51° WNW 20:09:02 10° N
ATLAS CENTAUR R/B 3.6 20:04:10 10° WSW 20:07:16 26° NW 20:10:30 10° N
Meteor 2-14 Rocket 4.5 20:01:17 10° S 20:07:23 89° E 20:13:31 10° N
Cosmos 1892 2.7 20:03:40 10° N 20:07:33 86° E 20:11:24 10° S
CZ-2D R/B 3.2 20:05:50 10° SSE 20:09:37 84° ENE 20:13:26 10° N
Cosmos 2237 Rocket 2.2 20:04:26 10° SSW 20:10:02 84° ESE 20:15:41 10° NNE
Cosmos 1844 3.9 20:05:00 10° NNW 20:10:43 78° WSW 20:16:28 10° SSE
Cosmos 1939 Rocket 3.4 20:08:36 11° SE 20:12:02 37° ENE 20:15:39 10° N
SL-8 Rocket 4.2 20:08:12 10° SSE 20:14:15 50° E 20:20:17 10° NNE
Genesis I 3.2 20:11:46 10° NNW 20:15:51 74° ENE 20:19:13 14° SE
Cosmos 1633 Rocket 3.1 20:12:49 10° N 20:17:11 84° W 20:21:32 10° S
USA 186 1.3 20:16:31 24° SE 20:17:28 40° ENE 20:19:40 10° N
Meteor 1-27 4.4 20:12:19 10° S 20:18:03 83° W 20:23:44 10° N
Meteor 2-16 Rocket 4.5 20:13:06 10° S 20:19:14 89° W 20:25:23 10° N
Cosmos 2278 Rocket 2.4 20:19:04 10° NNW 20:24:39 56° ENE 20:29:00 17° SE
OAO 2 Rocket 4.1 20:20:30 10° W 20:25:27 43° SSW 20:28:55 18° SE
Cosmos 1515 Rocket 3.5 20:22:23 10° S 20:26:50 83° E 20:31:19 10° N
Cosmos 1371 Rocket 4.0 20:28:30 10° SSW 20:33:48 83° ESE 20:39:10 10° NNE
OAO 3 Copernicus 4.2 20:29:02 10° WSW 20:34:04 88° S 20:37:49 18° E
Cosmos 405 Rocket 4.2 20:35:30 19° ENE 20:35:30 19° ENE 20:37:43 10° NE
ASTRO E2 2.8 20:31:18 10° WSW 20:35:15 57° S 20:37:01 29° ESE
Envisat 3.7 20:32:47 10° S 20:37:43 53° W 20:42:41 10° NNW
Cosmos 1825 2.3 20:34:32 10° N 20:38:14 51° E 20:39:48 30° SE
Hubble Space Telescope 2.7 20:37:11 10° SSW 20:39:00 15° S 20:39:00 15° S
H-2A R/B 3.6 20:43:19 17° ENE 20:43:50 17° ENE 20:47:01 10° NNE
Cosmos 864 Rocket 4.4 20:38:12 10° S 20:44:13 63° E 20:50:16 10° NNE
CZ-4C R/B 2.8 20:44:58 28° ESE 20:44:58 28° ESE 20:49:18 10° NE
OAO 3 Rocket 4.0 20:42:18 10° SSW 20:46:25 29° SSE 20:46:40 29° SE
Cosmos 2228 Rocket 3.8 20:43:12 10° SSW 20:47:29 54° W 20:51:48 10° N
Meteor 2-10 Rocket 3.7 20:45:55 10° S 20:51:34 68° E 20:57:21 10° NNE
ARGOS 4.1 20:51:35 27° E 20:52:43 29° ENE 20:57:17 10° N
Cosmos 2056 Rocket 3.6 20:49:29 10° SSW 20:54:54 80° WNW 21:00:20 10° NNE
Cosmos 1452 Rocket 4.0 20:55:09 35° ESE 20:55:39 36° E 21:00:24 10° NE
Sakura Rocket 3.6 20:53:23 10° W 20:58:08 39° S 20:58:50 36° SSE
Cosmos 1408 3.0 20:56:56 10° NNW 21:00:34 60° W 21:02:18 28° SSW
SL-16 R/B 2.1 20:56:53 10° SSW 21:02:32 88° WNW 21:08:14 10° NNE
Gblst 52 Del rocket 4.0 21:05:41 10° SW 21:11:24 77° SE 21:16:52 10° NE
ATLAS 2AS CENTAUR R/B 3.6 21:06:15 10° NW 21:13:33 48° WSW 21:18:33 18° S
Cosmos 2098 Rocket 3.6 21:10:10 10° SSW 21:14:52 56° W 21:18:36 10° N
Resurs 01 Rocket 2.8 21:12:35 18° SSW 21:15:33 41° W 21:19:45 10° NNW
Cosmos 1190 Rocket 3.9 21:11:36 10° NNW 21:16:53 73° ENE 21:17:55 56° SE
Cosmos 2344 3.4 21:09:53 10° SSW 21:17:35 72° ESE 21:25:29 10° NE
Spot 2 Rocket 4.0 21:17:24 26° S 21:20:11 57° W 21:25:12 10° NNW
Cosmos 405 3.6 21:17:03 10° N 21:19:45 51° N 21:19:45 51° N
Cosmos 1821 Rocket 4.2 21:26:23 48° E 21:26:43 48° E 21:32:44 10° NNE
Cosmos 1954 Rocket 4.5 21:23:15 10° N 21:27:53 43° ENE 21:27:53 43° ENE
MetOp-A 4.0 21:29:28 64° ESE 21:29:56 68° ENE 21:35:15 10° N
Cosmos 1727 Rocket 3.9 21:25:10 10° N 21:31:21 82° W 21:33:38 42° S
Cosmos 1441 Rocket 4.2 21:37:10 44° WNW 21:37:10 44° WNW 21:40:34 10° N
Terra 4.2 21:40:06 12° NE 21:40:06 12° NE 21:40:49 10° NNE
Cosmos 2297 3.6 21:35:03 10° NNW 21:40:45 86° WSW 21:41:21 72° S
Cosmos 2369 Rocket 4.0 21:37:26 10° NNE 21:40:37 18° NE 21:40:37 18° NE
Cosmos 1707 Rocket 4.0 21:42:05 58° NNW 21:42:05 58° NNW 21:45:42 10° N
NOSS 3-4 (A) 3.8 21:37:15 10° NNW 21:44:30 89° ENE 21:46:15 58° SSE
NOSS 3-4 (C) 3.8 21:37:21 10° NNW 21:44:36 88° ENE 21:46:20 58° SSE
Cosmos 614 Rocket 4.2 21:42:57 10° NNW 21:47:28 62° NNE 21:47:28 62° NNE
ERS-1 Rocket 3.3 21:49:53 59° NNE 21:49:53 59° NNE 21:54:04 10° N
SL-08 RB Rocket 4.4 21:53:52 49° NNW 21:53:52 49° NNW 21:57:08 10° NNW
Cosmos 1869 Rocket 4.5 21:50:33 10° NNW 21:54:05 46° WNW 21:54:05 46° WNW
Cosmos 1420 Rocket 4.2 21:55:12 69° W 21:55:25 70° WNW 22:00:44 10° NNE
ATLAS 5 CENTAUR R/B 4.0 21:54:13 10° N 21:58:49 22° NE 21:58:49 22° NE
Cosmos 1535 Rocket 4.5 21:59:32 72° ENE 21:59:32 72° ENE 22:05:30 10° N
SPOT 5 4.4 22:14:45 29° N 22:14:45 29° N 22:16:57 10° N
Lacrosse 5 3.8 22:11:51 10° NNW 22:14:47 21° NNE 22:14:47 21° NNE
ATLAS 2A CENTAUR R/B 3.7 22:04:34 10° WSW 22:22:14 59° S 22:22:31 59° S
H-2A R/B 3.1 22:23:56 39° WNW 22:23:56 39° WNW 22:27:39 10° NNW
CZ-4C R/B 3.7 22:29:40 16° WSW 22:33:00 32° NW 22:38:06 10° NNE
Cosmos 1943 Rocket 3.8 22:37:18 10° N 22:40:03 26° NNE 22:40:03 26° NNE
BREEZE-M DEB (TANK) 4.3 22:22:06 10° NW 22:43:50 62° NNE 22:44:19 61° NE
Terra 4.4 23:18:58 17° NNW 23:18:58 17° NNW 23:20:08 10° NNW
Cosmos 2369 Rocket 4.1 23:20:03 10° NNW 23:22:24 25° NW 23:22:24 25° NW
USA 267 4.3 23:27:19 10° NNE 23:33:16 39° NW 23:33:30 39° NW
ATLAS 5 CENTAUR R/B 4.2 23:37:47 10° NW 23:40:22 27° NW 23:40:22 27° NW
